User: anonymous
Location: South Tamworth Observatory
(43.8246°N, 71.3026°W)
Time: 20:09:32
(UTC-04:00)
Language:

Cosmos 2208 Rocket - Orbit

View from above orbital plane
View from above orbital plane
View from above satellite
View from above satellite

Ground track
Ground track

The orbit data is extracted from the following two-line orbital elements,

1 22081U 92053B   14241.03396514  .00000098  00000-0  44832-4 0  6534
2 22081 074.0453 146.5665 0036100 004.7279 355.4205 14.33093254152253
Epoch (UTC): 29 August 2014 00:48:54
Eccentricity: 0.0036100
inclination: 74.0453°
perigee height: 755 km
apogee height: 807 km
right ascension of ascending node: 146.5665°
argument of perigee: 4.7279°
revolutions per day: 14.33093254
mean anomaly at epoch: 355.4205°
orbit number at epoch: 15225

The dashed part of the orbit path shows where the satellite is in the earth's shadow,  

DLR